KB1DML-3 Weather Reports


time (UTC)temp
C
wind
direction
speed
KPH
gust
KPH
rain 1hr
cm
rain 24hr
cm
rain mn
cm
humidity
%
barometer
mb
20260505084520 -17 225 19.3 27.4 0.00 0.00 0.00
20260505084021 -17 225 17.7 24.1 0.00 0.00 0.00
20260505083521 -17 225 16.1 24.1 0.00 0.00 0.00
20260505083041 -17 225 16.1 22.5 0.00 0.00 0.00
20260505082521 -17 225 14.5 22.5 0.00 0.00 0.00
20260505082021 -17 225 16.1 20.9 0.00 0.00 0.00
20260505081521 -17 225 17.7 22.5 0.00 0.00 0.00
20260505081030 -17 225 17.7 20.9 0.00 0.00 0.00
20260505080529 -17 225 16.1 22.5 0.00 0.00 0.00
20260505080023 -17 225 16.1 20.9 0.00 0.00 0.00
20260505075540 -17 225 16.1 22.5 0.00 0.00 0.00
20260505075020 -17 225 14.5 20.9 0.00 0.00 0.00
20260505074532 -17 225 16.1 22.5 0.00 0.00 0.00
20260505074028 -17 225 16.1 25.7 0.00 0.00 0.00
20260505073520 -17 225 14.5 22.5 0.00 0.00 0.00
20260505073022 -17 225 12.9 22.5 0.00 0.00 0.00
20260505072520 -17 225 12.9 22.5 0.00 0.00 0.00
20260505072021 -17 225 14.5 22.5 0.00 0.00 0.00
20260505071522 -17 225 19.3 27.4 0.00 0.00 0.00
20260505070520 -17 225 20.9 27.4 0.00 0.00 0.00
20260505070020 -17 225 19.3 29.0 0.00 0.00 0.00
20260505065601 -17 225 17.7 27.4 0.00 0.00 0.00
20260505065025 -17 225 16.1 25.7 0.00 0.00 0.00
20260505064521 -17 225 12.9 24.1 0.00 0.00 0.00
20260505064042 -17 225 14.5 25.7 0.00 0.00 0.00
20260505063520 -17 225 16.1 24.1 0.00 0.00 0.00
20260505063020 -17 225 14.5 24.1 0.00 0.00 0.00
20260505062520 -17 225 12.9 22.5 0.00 0.00 0.00
20260505062021 -17 225 14.5 24.1 0.00 0.00 0.00
20260505061020 -17 225 11.3 20.9 0.00 0.00 0.00
20260505060545 -17 225 11.3 20.9 0.00 0.00 0.00
20260505060023 -17 225 12.9 20.9 0.00 0.00 0.00
20260505055521 -17 225 14.5 20.9 0.00 0.00 0.00
20260505053520 -17 225 14.5 22.5 0.00 0.00 0.00
20260505053020 -17 225 16.1 25.7 0.00 0.00 0.00
20260505052540 -17 225 14.5 25.7 0.00 0.00 0.00
20260505052021 -17 225 16.1 25.7 0.00 0.00 0.00
20260505051522 -17 225 16.1 27.4 0.00 0.00 0.00
20260505051040 -17 225 16.1 29.0 0.00 0.00 0.00
20260505050520 -17 225 17.7 27.4 0.00 0.00 0.00
20260505041521 -17 203 27.4 30.6 0.00 0.00 0.00
20260505041022 -17 203 25.7 30.6 0.00 0.00 0.00
20260505040552 -17 203 25.7 30.6 0.00 0.00 0.00
20260505040023 -17 203 27.4 32.2 0.00 0.00 0.00
20260505035523 -17 203 27.4 32.2 0.00 0.00 0.00
20260505035058 -17 225 25.7 32.2 0.00 0.00 0.00
20260505034601 -17 225 25.7 35.4 0.00 0.00 0.00
20260505034021 -17 225 24.1 35.4 0.00 0.00 0.00
20260505024521 -17 225 20.9 32.2 0.00 0.00 0.00
20260505024023 -17 225 19.3 32.2 0.00 0.00 0.00
20260505023522 -17 225 20.9 32.2 0.00 0.00 0.00
20260505023021 -17 225 20.9 32.2 0.00 0.00 0.00
20260505022521 -17 225 19.3 32.2 0.00 0.00 0.00
20260505022021 -17 225 19.3 35.4 0.00 0.00 0.00
20260505021521 -17 225 22.5 35.4 0.00 0.00 0.00
20260505021102 -17 225 25.7 37.0 0.00 0.00 0.00
20260505020529 -17 225 29.0 40.2 0.00 0.00 0.00
20260505020049 -17 248 29.0 38.6 0.00 0.00 0.00
20260505015522 -17 248 27.4 37.0 0.00 0.00 0.00
20260505015021 -17 248 27.4 35.4 0.00 0.00 0.00
20260505014523 -17 225 25.7 37.0 0.00 0.00 0.00
20260505014020 -17 225 17.7 29.0 0.00 0.00 0.00
20260505013526 -17 225 17.7 27.4 0.00 0.00 0.00
20260505013021 -17 225 20.9 29.0 0.00 0.00 0.00
20260505012520 -17 225 17.7 27.4 0.00 0.00 0.00
20260505012042 -17 225 17.7 29.0 0.00 0.00 0.00
20260505011520 -17 225 22.5 32.2 0.00 0.00 0.00
20260505011020 -17 225 20.9 33.8 0.00 0.00 0.00
20260505005520 -17 225 14.5 27.4 0.00 0.00 0.00
20260505005021 -17 225 19.3 30.6 0.00 0.00 0.00
20260505004022 -17 225 25.7 35.4 0.00 0.00 0.00
20260505003520 -17 248 27.4 38.6 0.00 0.00 0.00
20260505003021 -17 225 27.4 37.0 0.00 0.00 0.00
20260505002520 -17 225 24.1 37.0 0.00 0.00 0.00
20260505002021 -17 225 20.9 40.2 0.00 0.00 0.00
20260505001520 -17 225 24.1 38.6 0.00 0.00 0.00
20260505001058 -17 225 27.4 38.6 0.00 0.00 0.00
20260505000551 -17 225 30.6 43.5 0.00 0.00 0.00
20260505000023 -17 225 27.4 45.1 0.00 0.00 0.00
20260504235520 -17 225 29.0 41.8 0.00 0.00 0.00
20260504235021 -17 225 32.2 48.3 0.00 0.00 0.00
20260504234520 -17 225 32.2 45.1 0.00 0.00 0.00
20260504234040 -17 225 32.2 46.7 0.00 0.00 0.00
20260504233520 -17 225 33.8 48.3 0.00 0.00 0.00
20260504233021 13 225 33.8 48.3 0.00 0.00 0.00 69
20260504232521 13 225 33.8 46.7 0.00 0.00 0.00 69
20260504232021 13 225 30.6 46.7 0.00 0.00 0.00 70
20260504231524 13 225 29.0 40.2 0.00 0.00 0.00 71
20260504231020 13 225 32.2 41.8 0.00 0.00 0.00 70
20260504230521 13 225 29.0 38.6 0.00 0.00 0.00 69
20260504230020 13 225 32.2 40.2 0.00 0.00 0.00 69
20260504225520 13 203 35.4 43.5 0.00 0.00 0.00 68
20260504225040 13 203 40.2 51.5 0.00 0.00 0.00 68
20260504224520 13 225 32.2 45.1 0.00 0.00 0.00 69
20260504224040 13 225 25.7 33.8 0.00 0.00 0.00 69
20260504223520 13 225 29.0 48.3 0.00 0.00 0.00 68
20260504223044 13 225 37.0 48.3 0.00 0.00 0.00 68
20260504222520 13 225 29.0 40.2 0.00 0.00 0.00 69
20260504222044 13 203 35.4 45.1 0.00 0.00 0.00 68
20260504221520 13 203 40.2 46.7 0.00 0.00 0.00 68
20260504221020 13 203 37.0 45.1 0.00 0.00 0.00 68
20260504220600 13 203 35.4 46.7 0.00 0.00 0.00 68
20260504220022 13 203 30.6 37.0 0.00 0.00 0.00 68
20260504215540 13 203 32.2 40.2 0.00 0.00 0.00 67
20260504215020 13 203 32.2 40.2 0.00 0.00 0.00 67
20260504214546 13 203 30.6 38.6 0.00 0.00 0.00 67
20260504214023 13 225 25.7 33.8 0.00 0.00 0.00 67
20260504213521 13 225 25.7 33.8 0.00 0.00 0.00 69
20260504213027 13 203 22.5 29.0 0.00 0.00 0.00 70
20260504212521 13 203 19.3 24.1 0.00 0.00 0.00 70
20260504212042 13 203 20.9 27.4 0.00 0.00 0.00 68
20260504211523 14 225 17.7 32.2 0.00 0.00 0.00 65
20260504211023 15 225 17.7 27.4 0.00 0.00 0.00 62
20260504210522 15 225 19.3 32.2 0.00 0.00 0.00 62
20260504210043 14 225 19.3 29.0 0.00 0.00 0.00 64
20260504205523 14 225 20.9 32.2 0.00 0.00 0.00 65
20260504205022 15 225 22.5 30.6 0.00 0.00 0.00 63
20260504204522 15 225 19.3 29.0 0.00 0.00 0.00 63
20260504204022 14 225 17.7 30.6 0.00 0.00 0.00 63
20260504202522 15 225 22.5 33.8 0.00 0.00 0.00 62
20260504202022 15 225 19.3 29.0 0.00 0.00 0.00 61
20260504201522 15 225 16.1 30.6 0.00 0.00 0.00 62
20260504201025 15 225 19.3 29.0 0.00 0.00 0.00 62
20260504200600 15 225 17.7 30.6 0.00 0.00 0.00 61
20260504200027 15 225 19.3 32.2 0.00 0.00 0.00 59
20260504195542 15 225 20.9 32.2 0.00 0.00 0.00 59
20260504195022 15 225 20.9 33.8 0.00 0.00 0.00 61
20260504194521 15 225 20.9 32.2 0.00 0.00 0.00 60
20260504194022 15 225 22.5 32.2 0.00 0.00 0.00 60
20260504193606 15 225 25.7 35.4 0.00 0.00 0.00 60
20260504193025 15 225 22.5 35.4 0.00 0.00 0.00 61
20260504192522 15 225 16.1 30.6 0.00 0.00 0.00 60
20260504192042 15 225 19.3 32.2 0.00 0.00 0.00 59
20260504191522 15 225 25.7 37.0 0.00 0.00 0.00 57
20260504191022 15 225 19.3 32.2 0.00 0.00 0.00 59
20260504190026 15 225 19.3 33.8 0.00 0.00 0.00 59
20260504185521 15 225 17.7 29.0 0.00 0.00 0.00 60
20260504185022 15 225 19.3 32.2 0.00 0.00 0.00 59
20260504184522 15 225 19.3 33.8 0.00 0.00 0.00 58
20260504184022 15 225 20.9 30.6 0.00 0.00 0.00 57
20260504182522 15 225 20.9 35.4 0.00 0.00 0.00 57
20260504182026 15 225 19.3 33.8 0.00 0.00 0.00 57
20260504181522 16 225 20.9 32.2 0.00 0.00 0.00 56
20260504181023 16 225 24.1 35.4 0.00 0.00 0.00 55
20260504180523 16 225 27.4 38.6 0.00 0.00 0.00 53
20260504180024 16 225 29.0 43.5 0.00 0.00 0.00 50
20260504175522 16 225 24.1 35.4 0.00 0.00 0.00 54
20260504175022 16 225 29.0 41.8 0.00 0.00 0.00 52
20260504174522 16 225 30.6 43.5 0.00 0.00 0.00 53
20260504174022 16 248 29.0 43.5 0.00 0.00 0.00 52
20260504173522 15 225 25.7 37.0 0.00 0.00 0.00 57
20260504173043 16 225 25.7 40.2 0.00 0.00 0.00 56
20260504172522 16 248 33.8 46.7 0.00 0.00 0.00 51
20260504172024 16 248 32.2 43.5 0.00 0.00 0.00 53
20260504171542 15 248 32.2 40.2 0.00 0.00 0.00 56
20260504171021 15 248 32.2 41.8 0.00 0.00 0.00 58
20260504170602 15 225 30.6 41.8 0.00 0.00 0.00 62
20260504151022 12 225 20.9 30.6 0.00 0.00 0.00 70
20260504150521 12 225 19.3 30.6 0.00 0.00 0.00 71
20260504141022 12 225 20.9 32.2 0.00 0.00 0.00 70
20260504140524 12 225 17.7 29.0 0.00 0.00 0.00 70
20260504130521 11 248 22.5 30.6 0.00 0.00 0.00 70
20260504110521 9 248 19.3 29.0 0.00 0.00 0.00 75
20260504100535 9 248 19.3 27.4 0.00 0.00 0.00 70
20260504090123 -17 270 12.9 17.7 0.00 0.00 0.00